| time (UTC) | temp F | wind direction | speed knots | gust knots | rain 1hr in | rain 24hr in | rain mn in | humidity % | barometer mb |
| 20260506235508 | 66 | 64 | 0.0 | 1.7 | 0.00 | 0.00 | 0.00 | 79 | 1013.0 |
| 20260506235003 | 66 | 3 | 2.6 | 2.6 | 0.00 | 0.00 | 0.00 | 78 | 1012.8 |
| 20260506234501 | 66 | 52 | 1.7 | 2.6 | 0.00 | 0.00 | 0.00 | 79 | 1012.9 |
| 20260506233958 | 66 | 351 | 0.0 | 0.9 | 0.00 | 0.00 | 0.00 | 79 | 1012.9 |
| 20260506233454 | 66 | 291 | 0.9 | 4.3 | 0.00 | 0.00 | 0.00 | 78 | 1012.6 |
| 20260506232951 | 66 | 279 | 0.0 | 2.6 | 0.00 | 0.00 | 0.00 | 79 | 1012.8 |
| 20260506232448 | 66 | 96 | 0.0 | 2.6 | 0.00 | 0.00 | 0.00 | 78 | 1012.6 |
| 20260506231943 | 66 | 0 | 0.9 | 1.7 | 0.00 | 0.00 | 0.00 | 77 | 1012.7 |
| 20260506231441 | 66 | 81 | 1.7 | 2.6 | 0.00 | 0.00 | 0.00 | 78 | 1012.6 |
| 20260506230938 | 66 | 25 | 2.6 | 4.3 | 0.00 | 0.00 | 0.00 | 78 | 1012.5 |
| 20260506230434 | 66 | 334 | 0.9 | 1.7 | 0.00 | 0.00 | 0.00 | 78 | 1012.5 |
| 20260506225931 | 67 | 72 | 1.7 | 2.6 | 0.00 | 0.00 | 0.00 | 77 | 1012.7 |
| 20260506225428 | 67 | 226 | 0.9 | 2.6 | 0.00 | 0.00 | 0.00 | 76 | 1012.5 |
| 20260506224925 | 67 | 325 | 1.7 | 2.6 | 0.00 | 0.00 | 0.00 | 76 | 1012.3 |
| 20260506224423 | 67 | 37 | 1.7 | 4.3 | 0.00 | 0.00 | 0.00 | 76 | 1012.3 |
| 20260506223919 | 68 | 27 | 2.6 | 5.2 | 0.00 | 0.00 | 0.00 | 76 | 1012.4 |
| 20260506223414 | 68 | 8 | 0.9 | 2.6 | 0.00 | 0.00 | 0.00 | 75 | 1012.2 |
| 20260506222912 | 68 | 249 | 1.7 | 4.3 | 0.00 | 0.00 | 0.00 | 75 | 1012.4 |
| 20260506222408 | 68 | 75 | 0.9 | 8.7 | 0.00 | 0.00 | 0.00 | 75 | 1012.3 |
| 20260506221906 | 68 | 274 | 0.9 | 2.6 | 0.00 | 0.00 | 0.00 | 75 | 1012.3 |
| 20260506221402 | 68 | 332 | 0.9 | 6.1 | 0.00 | 0.00 | 0.00 | 75 | 1012.4 |
| 20260506220900 | 69 | 36 | 5.2 | 7.0 | 0.00 | 0.00 | 0.00 | 74 | 1012.4 |
| 20260506220355 | 70 | 342 | 2.6 | 5.2 | 0.00 | 0.00 | 0.00 | 73 | 1012.3 |
| 20260506215852 | 70 | 60 | 2.6 | 5.2 | 0.00 | 0.00 | 0.00 | 73 | 1012.2 |
| 20260506215348 | 70 | 39 | 1.7 | 4.3 | 0.00 | 0.00 | 0.00 | 73 | 1012.3 |
| 20260506214844 | 70 | 340 | 2.6 | 5.2 | 0.00 | 0.00 | 0.00 | 72 | 1012.1 |
| 20260506214341 | 70 | 9 | 0.0 | 4.3 | 0.00 | 0.00 | 0.00 | 73 | 1012.3 |
| 20260506213839 | 70 | 33 | 1.7 | 7.8 | 0.00 | 0.00 | 0.00 | 73 | 1012.3 |
| 20260506213336 | 71 | 322 | 2.6 | 8.7 | 0.00 | 0.00 | 0.00 | 72 | 1012.1 |
| 20260506212833 | 72 | 351 | 1.7 | 7.8 | 0.00 | 0.00 | 0.00 | 71 | 1012.0 |
| 20260506212329 | 73 | 106 | 1.7 | 4.3 | 0.00 | 0.00 | 0.00 | 70 | 1012.0 |
| 20260506211824 | 73 | 106 | 2.6 | 8.7 | 0.00 | 0.00 | 0.00 | 71 | 1011.9 |
| 20260506211320 | 73 | 72 | 0.0 | 7.8 | 0.00 | 0.00 | 0.00 | 71 | 1011.9 |
| 20260506210818 | 75 | 137 | 0.9 | 5.2 | 0.00 | 0.00 | 0.00 | 70 | 1011.9 |
| 20260506210315 | 74 | 55 | 2.6 | 7.0 | 0.00 | 0.00 | 0.00 | 71 | 1011.6 |
| 20260506205812 | 75 | 357 | 3.5 | 6.1 | 0.00 | 0.00 | 0.00 | 69 | 1011.8 |
| 20260506205308 | 76 | 98 | 0.0 | 2.6 | 0.00 | 0.00 | 0.00 | 69 | 1011.9 |
| 20260506204804 | 75 | 85 | 1.7 | 7.0 | 0.00 | 0.00 | 0.00 | 70 | 1012.1 |
| 20260506204302 | 76 | 327 | 0.0 | 0.9 | 0.00 | 0.00 | 0.00 | 72 | 1012.3 |
| 20260506203800 | 75 | 348 | 0.9 | 6.1 | 0.00 | 0.00 | 0.00 | 72 | 1012.4 |
| 20260506203257 | 75 | 51 | 0.9 | 4.3 | 0.00 | 0.00 | 0.00 | 72 | 1012.3 |
| 20260506202754 | 75 | 262 | 0.0 | 4.3 | 0.00 | 0.00 | 0.00 | 73 | 1012.2 |
| 20260506202251 | 74 | 286 | 1.7 | 6.1 | 0.00 | 0.00 | 0.00 | 74 | 1012.3 |
| 20260506201747 | 74 | 37 | 0.9 | 4.3 | 0.00 | 0.00 | 0.00 | 74 | 1012.1 |
| 20260506201244 | 74 | 351 | 0.9 | 5.2 | 0.00 | 0.00 | 0.00 | 74 | 1012.0 |
| 20260506200741 | 75 | 37 | 0.9 | 4.3 | 0.00 | 0.00 | 0.00 | 74 | 1011.8 |
| 20260506200237 | 77 | 36 | 2.6 | 5.2 | 0.00 | 0.00 | 0.00 | 73 | 1011.8 |
| 20260506195733 | 78 | 39 | 0.9 | 2.6 | 0.00 | 0.00 | 0.00 | 74 | 1011.8 |
| 20260506195230 | 78 | 337 | 0.0 | 2.6 | 0.00 | 0.00 | 0.00 | 74 | 1011.1 |
| 20260506194728 | 78 | 42 | 0.0 | 0.9 | 0.00 | 0.00 | 0.00 | 74 | 1011.4 |
| 20260506194224 | 77 | 85 | 2.6 | 5.2 | 0.00 | 0.00 | 0.00 | 74 | 1011.4 |
| 20260506193722 | 77 | 39 | 2.6 | 2.6 | 0.00 | 0.00 | 0.00 | 74 | 1011.6 |
| 20260506193218 | 78 | 353 | 0.9 | 2.6 | 0.00 | 0.00 | 0.00 | 74 | 1011.3 |
| 20260506192715 | 78 | 346 | 1.7 | 4.3 | 0.00 | 0.00 | 0.00 | 74 | 1011.5 |
| 20260506192212 | 79 | 71 | 0.9 | 4.3 | 0.00 | 0.00 | 0.00 | 73 | 1011.4 |
| 20260506191708 | 81 | 354 | 0.0 | 5.2 | 0.00 | 0.00 | 0.00 | 71 | 1011.6 |
| 20260506191204 | 80 | 286 | 0.9 | 1.7 | 0.00 | 0.00 | 0.00 | 72 | 1011.6 |
| 20260506190702 | 79 | 4 | 0.9 | 1.7 | 0.00 | 0.00 | 0.00 | 72 | 1011.6 |
| 20260506190158 | 78 | 5 | 0.0 | 0.9 | 0.00 | 0.00 | 0.00 | 74 | 1011.7 |
| 20260506185656 | 79 | 55 | 2.6 | 5.2 | 0.00 | 0.00 | 0.00 | 73 | 1011.8 |
| 20260506185152 | 79 | 314 | 0.0 | 0.9 | 0.00 | 0.00 | 0.00 | 74 | 1011.6 |
| 20260506184650 | 78 | 60 | 0.0 | 1.7 | 0.00 | 0.00 | 0.00 | 74 | 1011.6 |
| 20260506184147 | 78 | 55 | 2.6 | 6.1 | 0.00 | 0.00 | 0.00 | 73 | 1011.6 |
| 20260506183643 | 77 | 77 | 1.7 | 4.3 | 0.00 | 0.00 | 0.00 | 73 | 1011.7 |
| 20260506183139 | 78 | 77 | 2.6 | 2.6 | 0.00 | 0.00 | 0.00 | 74 | 1011.8 |
| 20260506182637 | 77 | 21 | 0.9 | 1.7 | 0.00 | 0.00 | 0.00 | 75 | 1011.9 |
| 20260506182134 | 75 | 188 | 0.9 | 2.6 | 0.00 | 0.00 | 0.00 | 77 | 1012.1 |
| 20260506181632 | 75 | 120 | 1.7 | 2.6 | 0.00 | 0.00 | 0.00 | 77 | 1011.8 |
| 20260506181129 | 74 | 46 | 2.6 | 2.6 | 0.00 | 0.00 | 0.00 | 78 | 1012.1 |
| 20260506180625 | 73 | 10 | 0.9 | 2.6 | 0.00 | 0.00 | 0.00 | 80 | 1011.7 |
| 20260506180122 | 73 | 24 | 1.7 | 2.6 | 0.00 | 0.00 | 0.00 | 81 | 1011.8 |
| 20260506175618 | 72 | 63 | 3.5 | 6.1 | 0.00 | 0.00 | 0.00 | 80 | 1012.0 |
| 20260506175114 | 71 | 63 | 0.0 | 0.9 | 0.00 | 0.00 | 0.00 | 82 | 1012.1 |
| 20260506174613 | 72 | 36 | 2.6 | 2.6 | 0.00 | 0.00 | 0.00 | 81 | 1012.0 |
| 20260506174109 | 71 | 66 | 6.1 | 8.7 | 0.00 | 0.00 | 0.00 | 81 | 1011.8 |
| 20260506173607 | 71 | 78 | 2.6 | 4.3 | 0.00 | 0.00 | 0.00 | 82 | 1011.9 |
| 20260506173103 | 70 | 94 | 2.6 | 2.6 | 0.00 | 0.00 | 0.00 | 82 | 1012.2 |
| 20260506172601 | 70 | 356 | 1.7 | 2.6 | 0.00 | 0.00 | 0.00 | 83 | 1012.2 |
| 20260506172057 | 70 | 11 | 1.7 | 1.7 | 0.00 | 0.00 | 0.00 | 83 | 1012.1 |
| 20260506171555 | 70 | 72 | 1.7 | 1.7 | 0.00 | 0.00 | 0.00 | 84 | 1012.0 |
| 20260506171052 | 70 | 92 | 1.7 | 4.3 | 0.00 | 0.00 | 0.00 | 85 | 1012.1 |
| 20260506170550 | 69 | 84 | 2.6 | 5.2 | 0.00 | 0.00 | 0.00 | 86 | 1012.1 |
| 20260506170047 | 69 | 3 | 4.3 | 6.1 | 0.00 | 0.00 | 0.00 | 87 | 1012.3 |
| 20260506165545 | 68 | 82 | 0.9 | 2.6 | 0.00 | 0.00 | 0.00 | 88 | 1012.5 |
| 20260506165041 | 68 | 8 | 2.6 | 5.2 | 0.00 | 0.00 | 0.00 | 88 | 1012.5 |
| 20260506164538 | 68 | 67 | 0.0 | 1.7 | 0.00 | 0.00 | 0.00 | 91 | 1012.2 |
| 20260506164036 | 67 | 38 | 2.6 | 2.6 | 0.00 | 0.00 | 0.00 | 91 | 1012.8 |
| 20260506163531 | 66 | 275 | 0.9 | 1.7 | 0.00 | 0.00 | 0.00 | 91 | 1013.0 |
| 20260506163027 | 67 | 327 | 0.9 | 1.7 | 0.00 | 0.00 | 0.00 | 91 | 1013.3 |
| 20260506162524 | 67 | 41 | 1.7 | 6.1 | 0.00 | 0.00 | 0.00 | 91 | 1013.2 |
| 20260506162021 | 68 | 298 | 1.7 | 4.3 | 0.00 | 0.00 | 0.00 | 91 | 1013.4 |
| 20260506161518 | 69 | 28 | 0.9 | 1.7 | 0.00 | 0.00 | 0.00 | 90 | 1013.2 |
| 20260506161015 | 69 | 47 | 1.7 | 2.6 | 0.00 | 0.00 | 0.00 | 89 | 1013.0 |
| 20260506160513 | 70 | 31 | 0.9 | 1.7 | 0.00 | 0.00 | 0.00 | 88 | 1012.9 |
| 20260506160011 | 72 | 351 | 4.3 | 8.7 | 0.00 | 0.00 | 0.00 | 87 | 1012.8 |
| 20260506155509 | 78 | 11 | 1.7 | 5.2 | 0.00 | 0.00 | 0.00 | 87 | 1012.6 |
| 20260506153640 | 78 | 346 | 0.0 | 0.0 | 0.00 | 0.00 | 0.00 | 91 | 1011.9 |
| 20260506153137 | 77 | 57 | 0.0 | 0.9 | 0.00 | 0.00 | 0.00 | 91 | 1011.9 |
| 20260506152634 | 77 | 57 | 0.0 | 0.9 | 0.00 | 0.00 | 0.00 | 91 | 1011.7 |
| 20260506152131 | 77 | 87 | 0.0 | 0.0 | 0.00 | 0.00 | 0.00 | 91 | 1011.5 |
| 20260506151630 | 77 | 87 | 0.0 | 0.0 | 0.00 | 0.00 | 0.00 | 91 | 1011.6 |
| 20260506151126 | 77 | 87 | 0.0 | 0.0 | 0.00 | 0.00 | 0.00 | 91 | 1011.4 |
| 20260506150623 | 78 | 26 | 0.9 | 0.9 | 0.00 | 0.00 | 0.00 | 90 | 1011.2 |
| 20260506150120 | 78 | 26 | 0.9 | 0.9 | 0.00 | 0.00 | 0.00 | 90 | 1011.0 |
| 20260506145617 | 78 | 232 | 0.0 | 0.0 | 0.00 | 0.00 | 0.00 | 90 | 1011.1 |
| 20260506145114 | 78 | 234 | 0.0 | 0.9 | 0.00 | 0.00 | 0.00 | 90 | 1010.7 |
| 20260506144611 | 77 | 226 | 0.9 | 1.7 | 0.00 | 0.00 | 0.00 | 90 | 1010.5 |
| 20260506144108 | 78 | 59 | 0.0 | 0.9 | 0.00 | 0.00 | 0.00 | 91 | 1010.7 |
| 20260506143606 | 78 | 59 | 0.0 | 0.9 | 0.00 | 0.00 | 0.00 | 91 | 1010.6 |
| 20260506143104 | 78 | 59 | 0.0 | 0.9 | 0.00 | 0.00 | 0.00 | 91 | 1010.3 |
| 20260506142601 | 77 | 157 | 0.9 | 1.7 | 0.00 | 0.00 | 0.00 | 91 | 1010.4 |
| 20260506142100 | 77 | 105 | 0.0 | 0.0 | 0.00 | 0.00 | 0.00 | 91 | 1010.3 |
| 20260506141557 | 77 | 105 | 0.0 | 0.0 | 0.00 | 0.00 | 0.00 | 91 | 1010.5 |
| 20260506141055 | 77 | 105 | 0.0 | 0.0 | 0.00 | 0.00 | 0.00 | 91 | 1010.5 |
| 20260506140552 | 77 | 104 | 0.0 | 0.0 | 0.00 | 0.00 | 0.00 | 91 | 1010.8 |
| 20260506140049 | 77 | 99 | 0.0 | 0.0 | 0.00 | 0.00 | 0.00 | 92 | 1010.5 |
| 20260506135546 | 77 | 99 | 0.0 | 0.0 | 0.00 | 0.00 | 0.00 | 92 | 1010.3 |
| 20260506135042 | 77 | 123 | 0.0 | 0.0 | 0.00 | 0.00 | 0.00 | 92 | 1009.9 |
| 20260506134539 | 77 | 303 | 0.0 | 0.9 | 0.00 | 0.00 | 0.00 | 92 | 1010.1 |
| 20260506134035 | 77 | 102 | 0.9 | 0.9 | 0.00 | 0.00 | 0.00 | 93 | 1009.9 |
| 20260506133532 | 77 | 46 | 0.0 | 0.9 | 0.00 | 0.00 | 0.00 | 93 | 1010.1 |
| 20260506133029 | 76 | 109 | 1.7 | 1.7 | 0.00 | 0.00 | 0.00 | 93 | 1009.8 |
| 20260506132526 | 76 | 170 | 0.0 | 0.9 | 0.00 | 0.00 | 0.00 | 93 | 1010.1 |
| 20260506132024 | 76 | 95 | 1.7 | 2.6 | 0.00 | 0.00 | 0.00 | 93 | 1009.9 |
| 20260506131520 | 76 | 199 | 0.9 | 0.9 | 0.00 | 0.00 | 0.00 | 93 | 1009.7 |
| 20260506131017 | 76 | 61 | 0.9 | 0.9 | 0.00 | 0.00 | 0.00 | 93 | 1009.7 |
| 20260506130514 | 76 | 198 | 0.0 | 0.0 | 0.00 | 0.00 | 0.00 | 93 | 1009.9 |
| 20260506130011 | 76 | 218 | 0.9 | 1.7 | 0.00 | 0.00 | 0.00 | 93 | 1009.8 |
| 20260506125510 | 76 | 217 | 0.9 | 0.9 | 0.00 | 0.00 | 0.00 | 93 | 1009.5 |
| 20260506125007 | 76 | 147 | 1.7 | 1.7 | 0.00 | 0.00 | 0.00 | 93 | 1009.5 |
| 20260506124505 | 76 | 205 | 0.9 | 0.9 | 0.00 | 0.00 | 0.00 | 93 | 1009.7 |
| 20260506124002 | 76 | 205 | 0.9 | 0.9 | 0.00 | 0.00 | 0.00 | 93 | 1009.6 |
| 20260506123500 | 76 | 197 | 0.0 | 0.0 | 0.00 | 0.00 | 0.00 | 93 | 1009.5 |
| 20260506122958 | 76 | 202 | 0.0 | 0.0 | 0.00 | 0.00 | 0.00 | 93 | 1009.6 |
| 20260506122454 | 76 | 215 | 0.0 | 0.9 | 0.00 | 0.00 | 0.00 | 93 | 1009.7 |
| 20260506121953 | 76 | 184 | 0.9 | 1.7 | 0.00 | 0.00 | 0.00 | 93 | 1009.7 |
| 20260506121449 | 76 | 213 | 0.0 | 0.9 | 0.00 | 0.00 | 0.00 | 93 | 1009.7 |
| 20260506120946 | 76 | 178 | 0.0 | 0.9 | 0.00 | 0.00 | 0.00 | 93 | 1009.5 |
| 20260506120444 | 76 | 125 | 0.9 | 1.7 | 0.00 | 0.00 | 0.00 | 93 | 1009.4 |
| 20260506115941 | 76 | 186 | 0.0 | 0.9 | 0.00 | 0.00 | 0.00 | 93 | 1009.4 |
| 20260506115439 | 76 | 181 | 0.0 | 0.9 | 0.00 | 0.00 | 0.00 | 93 | 1009.3 |
| 20260506114937 | 76 | 224 | 0.0 | 0.0 | 0.00 | 0.00 | 0.00 | 93 | 1009.3 |
| 20260506114434 | 76 | 224 | 0.0 | 0.9 | 0.00 | 0.00 | 0.00 | 93 | 1009.3 |
| 20260506113933 | 76 | 220 | 0.0 | 0.0 | 0.00 | 0.00 | 0.00 | 93 | 1009.3 |
| 20260506113430 | 76 | 219 | 0.0 | 0.0 | 0.00 | 0.00 | 0.00 | 93 | 1009.6 |
| 20260506112926 | 76 | 235 | 0.0 | 0.0 | 0.00 | 0.00 | 0.00 | 93 | 1009.3 |
| 20260506112424 | 76 | 197 | 0.0 | 0.9 | 0.00 | 0.00 | 0.00 | 93 | 1009.3 |
| 20260506111921 | 76 | 188 | 0.0 | 1.7 | 0.00 | 0.00 | 0.00 | 93 | 1009.6 |
| 20260506111419 | 76 | 217 | 0.0 | 0.9 | 0.00 | 0.00 | 0.00 | 93 | 1009.3 |
| 20260506110916 | 76 | 221 | 0.0 | 0.9 | 0.00 | 0.00 | 0.00 | 93 | 1009.4 |
| 20260506110414 | 76 | 163 | 0.0 | 1.7 | 0.00 | 0.00 | 0.00 | 93 | 1009.3 |
| 20260506105910 | 76 | 181 | 0.9 | 1.7 | 0.00 | 0.00 | 0.00 | 93 | 1009.5 |
| 20260506105406 | 76 | 205 | 0.0 | 0.0 | 0.00 | 0.00 | 0.00 | 93 | 1009.2 |
| 20260506104904 | 76 | 223 | 0.9 | 0.9 | 0.00 | 0.00 | 0.00 | 93 | 1009.2 |
| 20260506104402 | 76 | 251 | 0.0 | 1.7 | 0.00 | 0.00 | 0.00 | 93 | 1009.2 |
| 20260506103859 | 76 | 157 | 0.9 | 1.7 | 0.00 | 0.00 | 0.00 | 93 | 1009.0 |
| 20260506103356 | 76 | 157 | 0.9 | 1.7 | 0.00 | 0.00 | 0.00 | 93 | 1009.1 |
| 20260506102853 | 76 | 157 | 0.9 | 1.7 | 0.00 | 0.00 | 0.00 | 93 | 1009.0 |
| 20260506102352 | 76 | 205 | 0.0 | 0.0 | 0.00 | 0.00 | 0.00 | 93 | 1009.0 |
| 20260506101848 | 76 | 189 | 0.9 | 0.9 | 0.00 | 0.00 | 0.00 | 93 | 1008.8 |
| 20260506101344 | 76 | 189 | 0.9 | 0.9 | 0.00 | 0.00 | 0.00 | 93 | 1008.7 |
| 20260506100842 | 76 | 195 | 0.9 | 1.7 | 0.00 | 0.00 | 0.00 | 93 | 1008.5 |
| 20260506100341 | 76 | 240 | 0.0 | 0.9 | 0.00 | 0.00 | 0.00 | 93 | 1008.8 |
| 20260506095839 | 76 | 117 | 1.7 | 4.3 | 0.00 | 0.00 | 0.00 | 93 | 1008.6 |
| 20260506095335 | 76 | 239 | 0.0 | 0.0 | 0.00 | 0.00 | 0.00 | 93 | 1008.8 |
| 20260506094832 | 76 | 237 | 0.0 | 1.7 | 0.00 | 0.00 | 0.00 | 93 | 1008.6 |
| 20260506094331 | 76 | 219 | 0.9 | 0.9 | 0.00 | 0.00 | 0.00 | 93 | 1008.6 |
| 20260506093829 | 76 | 116 | 2.6 | 4.3 | 0.00 | 0.00 | 0.00 | 93 | 1008.5 |
| 20260506093325 | 76 | 127 | 2.6 | 4.3 | 0.00 | 0.00 | 0.00 | 93 | 1008.4 |
| 20260506092823 | 76 | 191 | 0.9 | 1.7 | 0.00 | 0.00 | 0.00 | 92 | 1008.4 |
| 20260506092321 | 76 | 191 | 0.9 | 1.7 | 0.00 | 0.00 | 0.00 | 92 | 1008.3 |
| 20260506091818 | 76 | 191 | 0.9 | 1.7 | 0.00 | 0.00 | 0.00 | 92 | 1008.1 |
| 20260506091316 | 76 | 191 | 0.9 | 1.7 | 0.00 | 0.00 | 0.00 | 92 | 1008.1 |
| 20260506090813 | 76 | 191 | 0.9 | 1.7 | 0.00 | 0.00 | 0.00 | 92 | 1008.3 |
| 20260506090310 | 76 | 191 | 0.9 | 1.7 | 0.00 | 0.00 | 0.00 | 92 | 1008.3 |
| 20260506085807 | 76 | 191 | 0.9 | 1.7 | 0.00 | 0.00 | 0.00 | 92 | 1008.4 |
| 20260506085305 | 76 | 191 | 0.9 | 1.7 | 0.00 | 0.00 | 0.00 | 92 | 1008.1 |
| 20260506084800 | 76 | 191 | 0.9 | 1.7 | 0.00 | 0.00 | 0.00 | 92 | 1008.1 |
| 20260506084256 | 76 | 244 | 0.0 | 0.9 | 0.00 | 0.00 | 0.00 | 92 | 1008.4 |
| 20260506083753 | 76 | 309 | 0.0 | 0.0 | 0.00 | 0.00 | 0.00 | 92 | 1008.6 |
| 20260506083251 | 76 | 309 | 0.0 | 0.0 | 0.00 | 0.00 | 0.00 | 92 | 1008.1 |
| 20260506082748 | 76 | 309 | 0.0 | 0.0 | 0.00 | 0.00 | 0.00 | 92 | 1008.3 |
| 20260506082243 | 76 | 309 | 0.0 | 0.0 | 0.00 | 0.00 | 0.00 | 92 | 1008.1 |
| 20260506081741 | 76 | 309 | 0.0 | 0.0 | 0.00 | 0.00 | 0.00 | 92 | 1008.4 |
| 20260506081238 | 76 | 309 | 0.0 | 0.0 | 0.00 | 0.00 | 0.00 | 92 | 1008.2 |
| 20260506080737 | 76 | 186 | 1.7 | 1.7 | 0.00 | 0.00 | 0.00 | 92 | 1008.4 |
| 20260506080233 | 76 | 128 | 0.9 | 0.9 | 0.00 | 0.00 | 0.00 | 92 | 1008.5 |
| 20260506073217 | 76 | 223 | 0.0 | 0.0 | 0.00 | 0.00 | 0.00 | 92 | 1008.6 |
| 20260506072713 | 76 | 209 | 0.0 | 0.9 | 0.00 | 0.00 | 0.00 | 92 | 1008.5 |
| 20260506072211 | 76 | 237 | 0.0 | 0.9 | 0.00 | 0.00 | 0.00 | 92 | 1008.7 |
| 20260506071708 | 77 | 151 | 1.7 | 1.7 | 0.00 | 0.00 | 0.00 | 91 | 1008.6 |
| 20260506071206 | 77 | 217 | 2.6 | 2.6 | 0.00 | 0.00 | 0.00 | 91 | 1008.9 |
| 20260506070703 | 77 | 131 | 0.0 | 0.9 | 0.00 | 0.00 | 0.00 | 91 | 1008.8 |
| 20260506070200 | 77 | 315 | 0.9 | 0.9 | 0.00 | 0.00 | 0.00 | 91 | 1008.9 |
| 20260506062137 | 76 | 173 | 2.6 | 2.6 | 0.00 | 0.00 | 0.00 | 91 | 1009.1 |
| 20260506061633 | 76 | 173 | 2.6 | 2.6 | 0.00 | 0.00 | 0.00 | 91 | 1009.0 |
| 20260506061131 | 76 | 173 | 2.6 | 2.6 | 0.00 | 0.00 | 0.00 | 91 | 1008.7 |
| 20260506060629 | 76 | 151 | 0.0 | 0.9 | 0.00 | 0.00 | 0.00 | 92 | 1008.7 |
| 20260506060126 | 76 | 151 | 0.0 | 0.9 | 0.00 | 0.00 | 0.00 | 92 | 1008.9 |
| 20260506051057 | 77 | 204 | 4.3 | 5.2 | 0.00 | 0.00 | 0.00 | 91 | 1009.1 |
| 20260506050555 | 77 | 204 | 4.3 | 5.2 | 0.00 | 0.00 | 0.00 | 91 | 1009.0 |
| 20260506045046 | 77 | 164 | 0.9 | 2.6 | 0.00 | 0.00 | 0.00 | 90 | 1009.0 |
| 20260506044544 | 77 | 226 | 0.0 | 0.0 | 0.00 | 0.00 | 0.00 | 90 | 1009.0 |
| 20260506044040 | 78 | 195 | 2.6 | 2.6 | 0.00 | 0.00 | 0.00 | 90 | 1009.0 |
| 20260506043537 | 78 | 185 | 2.6 | 4.3 | 0.00 | 0.00 | 0.00 | 90 | 1008.8 |
| 20260506043036 | 78 | 225 | 1.7 | 5.2 | 0.00 | 0.00 | 0.00 | 90 | 1008.8 |
| 20260506042535 | 78 | 194 | 2.6 | 2.6 | 0.00 | 0.00 | 0.00 | 89 | 1008.9 |
| 20260506042032 | 78 | 231 | 0.9 | 2.6 | 0.00 | 0.00 | 0.00 | 89 | 1008.7 |
| 20260506041531 | 78 | 195 | 2.6 | 2.6 | 0.00 | 0.00 | 0.00 | 89 | 1008.9 |
| 20260506041027 | 78 | 170 | 0.9 | 4.3 | 0.00 | 0.00 | 0.00 | 89 | 1008.7 |
| 20260506040525 | 78 | 124 | 0.9 | 1.7 | 0.00 | 0.00 | 0.00 | 89 | 1008.6 |
| 20260506040021 | 78 | 113 | 1.7 | 4.3 | 0.00 | 0.00 | 0.00 | 88 | 1008.4 |
| 20260506035518 | 78 | 171 | 0.9 | 4.3 | 0.00 | 0.00 | 0.00 | 88 | 1008.4 |
| 20260506035014 | 78 | 204 | 0.0 | 0.9 | 0.00 | 0.00 | 0.00 | 88 | 1008.5 |
| 20260506034512 | 78 | 230 | 0.9 | 1.7 | 0.00 | 0.00 | 0.00 | 88 | 1008.2 |
| 20260506034009 | 78 | 132 | 2.6 | 4.3 | 0.00 | 0.00 | 0.00 | 88 | 1008.4 |
| 20260506033506 | 78 | 137 | 1.7 | 1.7 | 0.00 | 0.00 | 0.00 | 88 | 1008.4 |
| 20260506033003 | 78 | 211 | 1.7 | 2.6 | 0.00 | 0.00 | 0.00 | 88 | 1008.2 |
| 20260506032500 | 78 | 143 | 0.9 | 4.3 | 0.00 | 0.00 | 0.00 | 87 | 1008.1 |
| 20260506031956 | 79 | 156 | 1.7 | 4.3 | 0.00 | 0.00 | 0.00 | 87 | 1008.1 |
| 20260506031454 | 79 | 185 | 1.7 | 4.3 | 0.00 | 0.00 | 0.00 | 87 | 1007.9 |
| 20260506030951 | 79 | 208 | 0.9 | 1.7 | 0.00 | 0.00 | 0.00 | 86 | 1007.9 |
| 20260506030449 | 79 | 198 | 0.9 | 2.6 | 0.00 | 0.00 | 0.00 | 86 | 1007.7 |
| 20260506025946 | 79 | 156 | 1.7 | 4.3 | 0.00 | 0.00 | 0.00 | 86 | 1007.8 |
| 20260506025443 | 79 | 196 | 0.0 | 2.6 | 0.00 | 0.00 | 0.00 | 86 | 1007.7 |
| 20260506024939 | 79 | 155 | 1.7 | 4.3 | 0.00 | 0.00 | 0.00 | 86 | 1007.8 |
| 20260506024436 | 79 | 202 | 1.7 | 2.6 | 0.00 | 0.00 | 0.00 | 86 | 1007.5 |
| 20260506023932 | 79 | 181 | 3.5 | 4.3 | 0.00 | 0.00 | 0.00 | 85 | 1007.1 |
| 20260506023429 | 80 | 213 | 2.6 | 4.3 | 0.00 | 0.00 | 0.00 | 85 | 1007.6 |
| 20260506022926 | 80 | 70 | 0.9 | 4.3 | 0.00 | 0.00 | 0.00 | 84 | 1007.1 |
| 20260506022424 | 80 | 134 | 4.3 | 7.0 | 0.00 | 0.00 | 0.00 | 83 | 1006.9 |
| 20260506021922 | 80 | 175 | 1.7 | 6.1 | 0.00 | 0.00 | 0.00 | 83 | 1006.8 |
| 20260506021418 | 80 | 190 | 0.9 | 2.6 | 0.00 | 0.00 | 0.00 | 82 | 1006.8 |
| 20260506020915 | 80 | 216 | 0.9 | 2.6 | 0.00 | 0.00 | 0.00 | 81 | 1006.9 |
| 20260506020413 | 81 | 200 | 0.9 | 2.6 | 0.00 | 0.00 | 0.00 | 81 | 1006.6 |
| 20260506015910 | 81 | 211 | 1.7 | 2.6 | 0.00 | 0.00 | 0.00 | 81 | 1006.8 |
| 20260506015408 | 81 | 190 | 1.7 | 4.3 | 0.00 | 0.00 | 0.00 | 81 | 1006.4 |
| 20260506014904 | 81 | 195 | 0.9 | 2.6 | 0.00 | 0.00 | 0.00 | 80 | 1006.5 |
| 20260506014401 | 81 | 208 | 0.0 | 1.7 | 0.00 | 0.00 | 0.00 | 80 | 1006.5 |
| 20260506013858 | 81 | 172 | 0.0 | 4.3 | 0.00 | 0.00 | 0.00 | 80 | 1006.5 |
| 20260506013356 | 81 | 182 | 2.6 | 2.6 | 0.00 | 0.00 | 0.00 | 80 | 1006.3 |
| 20260506012851 | 82 | 190 | 0.9 | 1.7 | 0.00 | 0.00 | 0.00 | 79 | 1006.4 |
| 20260506012348 | 82 | 202 | 0.9 | 2.6 | 0.00 | 0.00 | 0.00 | 79 | 1006.5 |
| 20260506011846 | 82 | 182 | 0.9 | 0.9 | 0.00 | 0.00 | 0.00 | 78 | 1006.6 |
| 20260506011343 | 82 | 191 | 0.9 | 0.9 | 0.00 | 0.00 | 0.00 | 78 | 1006.7 |
| 20260506010840 | 82 | 172 | 0.9 | 0.9 | 0.00 | 0.00 | 0.00 | 77 | 1006.6 |
| 20260506010338 | 83 | 203 | 2.6 | 2.6 | 0.00 | 0.00 | 0.00 | 76 | 1006.4 |
| 20260506005834 | 83 | 150 | 1.7 | 2.6 | 0.00 | 0.00 | 0.00 | 76 | 1006.4 |
| 20260506005331 | 83 | 218 | 0.0 | 0.9 | 0.00 | 0.00 | 0.00 | 76 | 1006.3 |
| 20260506004827 | 83 | 167 | 1.7 | 2.6 | 0.00 | 0.00 | 0.00 | 76 | 1006.3 |
| 20260506004325 | 83 | 222 | 0.0 | 1.7 | 0.00 | 0.00 | 0.00 | 76 | 1006.2 |
| 20260506003821 | 83 | 196 | 0.9 | 1.7 | 0.00 | 0.00 | 0.00 | 76 | 1006.3 |
| 20260506003317 | 84 | 170 | 0.0 | 1.7 | 0.00 | 0.00 | 0.00 | 76 | 1006.5 |
| 20260506002814 | 84 | 206 | 0.9 | 1.7 | 0.00 | 0.00 | 0.00 | 76 | 1006.1 |
| 20260506002310 | 84 | 218 | 0.0 | 1.7 | 0.00 | 0.00 | 0.00 | 76 | 1006.2 |
| 20260506001806 | 84 | 192 | 1.7 | 2.6 | 0.00 | 0.00 | 0.00 | 75 | 1006.2 |
| 20260506001303 | 84 | 209 | 0.9 | 1.7 | 0.00 | 0.00 | 0.00 | 75 | 1006.3 |
| 20260506000800 | 84 | 198 | 0.9 | 2.6 | 0.00 | 0.00 | 0.00 | 74 | 1006.2 |
| 20260506000258 | 84 | 158 | 0.9 | 2.6 | 0.00 | 0.00 | 0.00 | 74 | 1006.0 |
| 20260505235755 | 84 | 208 | 2.6 | 4.3 | 0.00 | 0.00 | 0.00 | 74 | 1006.0 |